Home   Weather   Navalcarnero   Past weeks
Flag for Spain

Past Weather in Navalcarnero, Madrid, Spain — Yesterday and Last 2 Weeks

Now
86 °F

Passing clouds.


Feels Like: 85 °F
Forecast: 102 / 75 °F
Wind: 5 mph from East

Location: Madrid / Cuatro Vientos

Current Time: Aug 7, 2020 at 12:34:02 pm

Latest Report: Aug 7, 2020 at 11:30 am


Visibility: N/A

Pressure: 30.12 "Hg

Humidity: 38%

Dew Point: 57 °F

Location of NavalcarneroLocation

Past Weather in Navalcarnero — Graph

°F

Navalcarnero Temperature Yesterday

Maximum temperature yesterday: 100 °F (at 4:30 pm)
Minimum temperature yesterday: 77 °F (at 5:00 am)
Average temperature yesterday: 88 °F

High & Low Weather Summary for the Past Weeks

 TemperatureHumidityPressure
High104 °F (Jul 26, 4:00 pm)61% (Aug 6, 5:00 am)30.12 "Hg (Aug 6, 5:00 am)
Low66 °F (Aug 4, 7:30 am)8% (Aug 1, 4:00 pm)29.89 "Hg (Jul 30, 6:00 pm)
Average87 °F30%30.02 "Hg
* Reported Jul 23 11:00 am — Aug 7 11:00 am, Navalcarnero. Weather by CustomWeather, © 2020

Note: Actual official high and low records may vary slightly from our data, if they occured in-between our weather recording intervals... More about our weather records

Navalcarnero Weather History for the Previous 24 Hours

Scroll right to see more
 ConditionsComfort  
Time TempWeatherWind HumidityBarometerVisibility
11:00 am
Fri, Aug 7
86 °FSunny.5 mph35%30.12 "Hg10 mi
10:30 am84 °FPassing clouds.3 mph37%30.12 "HgN/A
10:00 am82 °FPassing clouds.6 mph40%30.12 "HgN/A
9:30 am81 °FPassing clouds.8 mph39%30.12 "HgN/A
8:30 am79 °FPassing clouds.6 mph45%30.12 "HgN/A
8:00 am77 °FPassing clouds.5 mph51%30.09 "HgN/A
7:30 am77 °FPassing clouds.7 mph51%30.09 "HgN/A
7:00 am79 °FPassing clouds.7 mph48%30.09 "HgN/A
6:30 am79 °FPassing clouds.5 mph48%30.09 "HgN/A
6:00 am79 °FPassing clouds.5 mph48%30.09 "HgN/A
5:30 am81 °FPassing clouds.5 mph45%30.07 "HgN/A
5:00 am81 °FPassing clouds.5 mph45%30.07 "HgN/A
4:30 am82 °FWarm.5 mph42%30.07 "Hg6 mi
4:00 am82 °FPassing clouds.3 mph37%30.07 "HgN/A
3:30 am82 °FClear.7 mph40%30.07 "Hg10 mi
3:00 am84 °FPassing clouds.8 mph35%30.07 "HgN/A
2:30 am84 °FClear.7 mph35%30.07 "Hg10 mi
1:30 am86 °FPassing clouds.6 mph29%30.07 "HgN/A
1:00 am86 °FPassing clouds.6 mph27%30.04 "HgN/A
12:30 am88 °FPassing clouds.6 mph27%30.04 "HgN/A
12:00 am90 °FPassing clouds.6 mph27%30.04 "HgN/A
11:30 pm
Thu, Aug 6
91 °FPassing clouds.7 mph26%30.01 "HgN/A
11:00 pm90 °FClear.3 mph29%30.01 "Hg10 mi
10:30 pm91 °FClear.3 mph28%30.01 "Hg10 mi
10:00 pm93 °FClear.3 mph24%30.01 "Hg10 mi
9:30 pm93 °FClear.3 mph24%29.98 "Hg10 mi
9:00 pm95 °FSunny.6 mph22%29.98 "Hg10 mi
8:30 pm99 °FPassing clouds.3 mph22%29.98 "HgN/A
8:00 pm99 °FPassing clouds.6 mph21%29.98 "HgN/A
7:30 pm100 °FPassing clouds.6 mph21%29.98 "HgN/A
7:00 pm100 °FPassing clouds.6 mph20%29.98 "HgN/A
6:30 pm99 °FPassing clouds.8 mph19%29.98 "HgN/A
6:00 pm100 °FPassing clouds.6 mph20%29.98 "HgN/A
5:30 pm100 °FPassing clouds.7 mph18%29.98 "HgN/A
5:00 pm100 °FPassing clouds.6 mph20%30.01 "HgN/A
4:30 pm100 °FPassing clouds.10 mph20%30.01 "HgN/A
4:00 pm99 °FSunny.7 mph22%30.01 "Hg10 mi
3:30 pm99 °FPassing clouds.6 mph24%30.04 "HgN/A
2:00 pm93 °FSunny.5 mph32%30.04 "Hg10 mi
1:30 pm91 °FSunny.6 mph34%30.04 "Hg10 mi
1:00 pm90 °FSunny.6 mph36%30.07 "Hg10 mi
12:30 pm88 °FSunny.5 mph40%30.07 "Hg10 mi
12:00 pm86 °FPassing clouds.6 mph43%30.07 "HgN/A
Weather by CustomWeather, © 2020

See weather overview